GFSCGP_925_thetae_132.txt.gz
Theta_e
313 312 311 311 313 315 318 318 318 319 319 319 320 321 321 321 321 321 321 321 320 321 324 327 336 344 346 351 351 350 351 351 349 352 352 349 349 351 350 350 349 348 342 348
313 312 311 312 313 315 317 319 319 319 319 319 320 320 321 321 321 322 322 322 322 322 326 327 327 330 336 344 351 351 346 335 335 343 344 344 344 347 349 349 344 337 345 346
315 316 314 314 317 318 318 318 319 319 319 319 320 321 321 321 321 321 322 322 323 323 326 328 328 328 327 330 344 353 351 345 345 335 330 328 324 344 347 347 347 345 346 346
317 317 317 317 318 318 319 318 318 319 319 320 320 320 321 320 320 321 321 323 324 324 326 328 328 328 327 326 330 342 352 346 349 350 342 339 342 347 347 345 344 343 343 344
316 317 318 318 317 318 319 319 319 320 321 321 320 320 320 320 320 321 321 322 326 327 326 325 325 325 326 325 326 331 337 347 349 350 348 348 347 347 348 343 345 345 348 349
317 317 317 316 316 319 319 319 319 320 320 321 320 320 320 320 320 321 323 326 327 327 327 327 325 323 323 323 323 329 332 341 345 347 348 349 349 348 351 347 348 347 344 341
318 318 318 319 319 320 319 321 322 321 320 319 320 320 320 321 321 324 326 327 328 329 329 329 329 328 324 324 327 327 338 342 344 346 346 348 350 350 351 348 347 342 338 335
319 320 319 318 319 319 320 321 321 321 321 320 320 319 319 322 327 325 326 327 328 329 331 331 331 329 327 325 327 333 336 344 347 349 348 349 350 349 348 346 341 337 333 332
322 320 319 319 319 319 320 321 321 322 321 321 320 321 321 325 326 326 326 327 329 330 330 331 332 330 329 329 333 338 342 345 347 347 348 348 347 343 340 335 334 331 329 329
322 325 321 323 322 321 320 322 323 322 323 323 321 321 321 325 324 326 326 327 327 327 328 329 331 332 332 334 337 337 338 340 341 340 339 338 334 332 332 333 332 331 332 330
322 323 324 322 323 323 323 323 324 326 325 326 325 323 326 325 325 326 326 326 325 325 324 325 326 327 329 331 332 331 330 329 330 330 330 331 331 331 332 332 332 333 333 332
325 325 329 324 324 323 325 325 326 331 328 327 326 327 328 328 326 326 325 325 325 324 324 323 322 322 323 324 325 327 328 328 328 329 330 331 331 331 332 331 331 331 330 329
326 329 332 331 328 325 325 325 326 327 329 330 332 329 327 328 327 326 326 326 325 325 325 325 324 324 323 323 323 323 322 322 323 324 325 327 327 327 328 328 328 328 327 326
323 328 328 332 328 327 328 326 325 327 334 330 328 326 327 325 324 324 325 325 326 324 323 323 324 325 322 321 320 320 319 318 318 319 320 322 322 321 322 321 321 321 321 321
324 326 325 324 322 322 322 323 323 324 325 326 323 320 319 318 318 317 317 318 319 320 321 321 322 323 321 320 317 316 315 314 315 315 315 316 315 315 315 316 316 317 317 317
321 325 322 322 318 318 319 319 319 319 318 318 318 317 316 316 318 319 319 319 319 319 319 319 319 318 316 315 315 313 313 312 312 312 312 312 312 312 312 312 313 313 313 313
319 318 319 315 315 315 315 314 314 315 315 314 315 318 320 319 319 317 318 318 319 318 316 316 315 315 313 313 312 311 310 310 310 310 309 309 309 309 309 309 309 309 310 310
317 317 316 315 316 317 317 315 316 319 318 319 321 320 318 317 316 315 315 315 314 314 314 313 313 312 311 310 309 308 308 308 308 308 308 308 307 307 307 306 306 307 307 307
314 315 319 319 318 316 315 319 320 320 321 321 320 319 319 318 316 316 313 311 312 311 311 310 310 309 309 308 308 307 307 307 307 306 306 305 305 304 304 304 305 305 306 306
315 317 318 318 319 319 321 318 318 319 322 320 318 317 317 316 319 317 313 310 310 310 309 309 308 307 308 307 306 306 306 305 305 305 304 303 303 304 304 305 305 304 304 305
317 317 320 318 318 317 317 317 316 322 323 318 317 316 316 316 314 312 311 311 310 309 308 307 307 307 306 306 304 304 304 304 303 302 302 302 302 302 303 303 303 303 303 303
319 320 320 319 320 318 316 317 319 321 318 317 316 315 315 313 311 310 310 311 309 309 307 306 306 305 304 303 302 302 302 302 302 301 301 301 301 302 302 302 301 298 297 296
319 317 320 318 318 318 317 318 317 317 316 315 314 313 312 311 311 310 309 308 308 306 305 304 303 302 302 301 301 301 301 300 300 300 300 300 300 300 299 297 295 295 296 296
314 316 317 316 316 316 316 316 316 315 314 313 311 310 309 309 308 307 307 306 305 304 303 301 301 302 302 301 300 299 299 298 298 298 298 298 294 294 295 296 296 295 295 295
313 314 314 314 314 313 314 312 311 311 309 308 307 307 306 306 305 305 305 304 303 302 301 300 300 300 300 299 298 298 297 295 295 294 292 292 293 293 294 293 293 294 294 295
311 312 313 314 315 314 313 311 308 308 307 306 305 305 303 303 303 303 303 302 300 298 297 297 298 298 297 296 295 294 292 291 290 291 291 291 292 292 292 293 294 295 295 296

GFSCGP_925_thetae_138.txt.gz
Theta_e
322 319 319 318 318 317 316 318 319 320 321 321 320 321 321 322 323 323 324 325 325 325 324 322 321 320 324 329 349 358 347 354 349 354 353 350 349 348 346 345 341 335 334 335
322 320 319 318 318 317 316 316 318 320 321 322 321 322 322 322 323 324 324 325 326 326 326 326 324 325 334 360 357 358 356 353 351 348 345 341 336 335 333 338 337 334 334 330
321 320 319 318 318 317 317 316 317 321 321 321 321 321 323 323 323 323 323 323 325 324 326 327 330 349 354 360 358 355 354 350 345 341 339 336 333 334 334 334 333 331 332 329
319 320 319 318 317 317 317 316 317 320 321 322 322 322 325 324 324 323 323 323 324 327 326 331 338 349 352 359 355 353 352 349 342 338 334 333 344 341 335 332 332 328 326 327
321 320 320 319 318 317 316 317 317 319 320 322 322 322 324 326 324 323 324 324 326 325 327 329 335 339 345 349 351 355 356 352 342 337 332 332 331 334 341 333 333 334 331 331
321 321 320 320 318 316 317 318 320 320 320 323 321 321 322 323 325 324 324 324 327 326 326 329 331 329 333 342 348 354 356 351 344 333 335 329 329 331 337 338 340 346 340 333
322 321 321 319 319 318 318 320 322 323 323 324 322 322 324 325 324 324 326 327 327 326 329 330 333 332 332 331 330 346 357 353 348 341 339 336 335 339 344 340 345 349 348 346
326 325 323 320 320 320 319 321 322 326 324 322 321 323 323 325 324 326 325 325 325 326 329 329 332 333 330 332 331 330 337 342 349 352 348 346 340 342 351 346 345 346 346 347
322 326 320 319 319 320 320 321 322 324 324 326 324 323 326 326 325 325 324 325 328 329 330 330 333 334 337 339 341 340 337 337 339 342 348 352 353 354 352 349 348 347 347 344
323 328 321 321 320 320 321 320 322 323 326 329 326 325 326 327 326 324 324 327 328 327 328 329 332 336 337 338 339 340 342 343 345 346 346 346 348 347 348 345 345 345 343 341
321 329 330 323 323 321 320 322 323 324 326 330 330 332 329 327 331 331 328 328 328 326 326 327 329 330 331 333 333 333 335 336 337 340 341 342 341 341 334 330 337 335 336 338
324 329 331 329 323 324 325 321 322 330 330 326 334 335 331 331 330 331 328 328 326 326 326 326 326 327 327 328 328 329 328 328 329 332 332 331 335 337 336 335 334 335 335 333
327 331 335 332 329 326 329 323 324 327 332 333 335 337 330 330 331 329 328 329 326 325 326 327 327 326 326 326 325 324 323 324 325 328 329 328 328 329 329 329 329 330 330 330
328 331 332 335 332 330 331 330 326 328 335 332 331 333 331 329 328 328 329 327 326 327 326 326 325 326 325 324 324 322 322 322 321 323 324 323 322 323 323 323 323 324 323 323
328 330 329 329 326 326 326 326 329 330 326 332 330 329 332 325 325 325 323 320 320 319 320 321 325 327 326 326 322 321 319 318 318 318 320 319 318 317 318 318 318 319 319 319
329 327 323 329 329 324 323 321 327 328 329 326 327 328 326 323 323 322 321 321 321 321 320 321 324 323 322 320 319 318 317 316 316 316 315 315 314 314 313 314 314 315 315 316
323 321 321 321 323 323 321 319 320 327 326 325 326 324 324 322 321 320 320 320 320 321 321 321 321 320 319 317 316 315 315 314 314 314 314 314 314 313 313 312 311 311 311 312
321 319 320 321 318 319 321 320 318 318 316 316 317 322 322 321 320 319 319 319 319 318 318 318 317 316 316 315 315 314 314 314 314 313 313 313 312 312 311 311 311 310 311 311
318 321 323 321 320 319 319 320 321 320 319 321 323 323 321 321 320 320 318 317 318 317 317 316 315 315 314 314 314 314 313 313 313 312 312 311 310 310 309 309 309 310 310 311
316 319 324 320 323 320 326 321 319 319 328 322 323 322 321 320 320 321 318 316 315 315 314 315 314 314 314 314 313 313 312 312 311 310 310 309 308 308 308 308 308 308 309 310
319 321 322 321 322 319 322 319 318 322 326 322 320 320 319 319 320 318 317 316 315 315 314 313 312 313 313 312 311 311 310 309 308 308 307 307 307 307 307 308 308 307 306 306
320 322 322 323 322 320 319 318 321 325 322 319 318 318 318 316 316 315 315 314 314 313 312 312 311 311 309 308 307 307 307 307 307 306 306 306 306 306 305 304 304 303 303 302
321 318 322 321 321 322 322 322 321 321 318 317 316 314 314 314 314 314 313 312 312 310 309 308 308 307 307 306 306 307 306 306 305 305 304 303 301 301 301 299 299 298 298 298
317 319 320 320 320 320 320 319 318 316 316 314 314 313 312 312 312 311 310 309 308 307 307 306 306 306 305 304 304 304 304 302 300 300 299 298 297 297 296 295 295 295 296 297
318 317 316 316 319 318 316 315 314 313 312 312 312 311 310 309 308 307 306 306 306 304 304 303 303 303 302 302 301 300 299 297 296 295 295 294 294 293 292 293 293 294 294 295
315 316 317 319 318 319 317 313 311 311 310 309 308 308 307 306 305 305 306 305 303 301 301 300 299 299 298 298 297 296 294 293 292 291 291 291 290 292 292 293 293 294 295 296

GFSCGP_925_thetae_141.txt.gz
Theta_e
320 317 318 316 314 316 316 316 315 315 316 316 316 315 316 317 317 316 318 319 319 317 317 318 319 318 318 320 336 351 350 350 345 340 338 342 339 346 344 344 343 345 344 337
322 321 318 318 317 317 317 316 315 315 316 317 317 318 318 318 318 319 319 319 321 320 319 320 319 319 319 322 347 353 351 344 341 338 336 343 344 339 336 338 338 339 339 336
321 323 321 320 318 318 316 316 315 315 316 319 319 319 319 321 320 319 320 319 321 322 321 320 319 319 336 357 352 351 351 349 346 346 348 346 339 332 333 334 335 336 336 334
321 321 323 321 319 318 318 317 316 316 316 319 318 317 320 320 321 322 320 318 321 322 324 324 338 351 353 357 354 352 349 346 348 345 344 341 336 334 333 333 334 333 332 331
322 322 322 320 319 319 317 317 317 316 316 320 318 317 318 319 321 321 320 322 321 323 324 331 345 346 357 357 354 352 348 346 345 346 343 338 336 336 335 333 333 333 332 333
322 321 320 319 320 319 318 317 316 315 315 317 318 319 318 318 322 322 322 324 322 323 326 327 328 329 333 353 354 353 349 347 344 341 340 338 338 339 338 335 333 333 332 331
324 323 320 321 322 318 317 314 315 320 317 318 318 319 317 319 323 322 325 323 321 324 326 327 326 325 332 336 345 353 353 348 345 340 338 336 336 339 340 337 335 334 335 335
328 325 322 322 320 318 315 314 318 322 322 320 321 320 319 319 324 325 325 322 324 324 325 328 328 332 339 340 341 346 350 349 349 344 338 335 335 333 336 341 338 337 343 341
326 328 324 321 321 320 317 317 317 321 324 326 322 321 322 321 324 323 323 326 325 325 327 330 332 336 338 339 339 342 342 345 351 348 344 340 340 343 344 343 345 343 342 340
322 325 324 323 321 321 319 318 319 321 328 326 324 327 333 330 329 323 327 325 325 325 326 330 333 336 335 331 330 331 336 340 340 341 341 341 342 342 345 346 344 341 338 335
321 327 328 327 322 319 319 320 319 319 320 325 330 335 330 332 331 329 327 325 323 322 325 326 328 331 330 329 327 328 330 332 332 333 337 337 337 337 334 330 326 326 330 327
319 325 327 327 325 325 327 320 322 324 327 327 330 331 330 329 329 329 327 327 327 328 324 322 323 326 325 325 324 324 325 327 329 329 328 331 329 328 328 329 331 329 330 333
321 326 330 329 327 326 326 322 323 324 328 331 334 332 330 329 327 327 326 328 326 328 326 322 321 321 323 323 322 322 320 320 325 324 324 324 325 325 322 323 325 329 328 326
327 329 329 330 332 330 330 330 329 325 327 330 331 333 331 328 325 322 322 322 323 322 326 325 321 322 322 320 318 318 317 317 317 320 319 318 317 318 318 319 319 320 320 321
328 331 330 329 326 327 327 328 329 331 330 330 329 330 332 327 322 322 321 322 324 321 321 324 321 319 318 318 317 316 315 314 315 315 315 315 314 314 314 314 314 315 315 316
325 327 326 328 329 326 325 325 328 329 331 330 326 330 328 326 323 322 321 321 321 321 321 320 319 318 316 316 315 314 314 314 314 314 314 314 314 314 313 313 312 311 311 310
326 326 326 330 329 327 327 322 322 326 329 329 329 324 326 325 322 320 319 319 319 318 318 317 316 316 316 315 315 314 314 313 313 313 313 313 312 311 310 310 309 309 310 310
320 319 320 324 327 324 321 318 319 323 325 326 327 323 324 321 317 317 317 317 317 317 316 314 314 314 314 314 314 314 313 313 313 312 312 311 309 308 308 308 308 309 308 308
317 322 320 320 320 321 324 322 323 325 324 323 321 320 319 318 317 316 316 315 314 313 313 314 314 314 314 314 313 313 312 312 311 310 310 308 308 307 307 307 307 307 308 309
316 317 320 319 321 323 324 321 319 322 326 321 321 320 319 318 319 318 314 313 313 313 313 313 313 313 313 313 312 311 310 309 309 308 307 307 306 306 306 306 305 304 305 305
319 319 320 321 320 324 322 320 319 321 325 320 318 317 316 318 316 315 315 314 314 314 314 313 312 312 312 308 306 306 307 307 307 306 306 306 305 304 303 302 301 301 301 300
319 317 316 318 319 322 323 323 326 322 318 318 315 314 314 313 315 315 314 312 312 311 310 309 309 308 307 306 306 306 306 305 305 305 302 301 300 299 299 298 298 298 298 297
317 319 319 319 320 321 320 320 319 316 316 315 314 313 312 312 311 310 309 308 307 306 304 304 303 304 304 303 303 301 300 299 299 299 298 297 297 296 296 295 295 294 295 295
320 318 318 320 322 321 320 317 316 314 313 314 313 312 310 308 307 306 305 303 302 302 302 301 301 300 300 300 299 298 296 296 296 295 294 294 293 294 293 292 293 294 294 295
316 318 317 319 319 316 316 314 313 312 310 310 308 306 305 304 303 303 302 302 301 300 300 299 299 298 298 297 296 295 293 293 292 291 291 291 291 291 291 292 292 292 293 294
316 318 317 318 318 318 315 311 310 308 305 304 303 303 303 303 302 302 301 301 299 298 297 297 296 296 295 293 293 292 291 290 289 289 289 289 290 290 291 291 292 293 294 295

GFSCGP_925_thetae_144.txt.gz
Theta_e
318 318 319 315 313 312 314 314 314 314 314 313 312 314 314 313 312 313 313 314 314 314 315 315 317 318 317 317 339 348 348 346 345 348 348 346 345 345 346 345 345 344 343 343
319 322 319 317 315 313 314 315 315 314 315 312 313 313 314 313 313 313 315 314 315 316 314 314 315 317 316 318 341 348 348 346 346 349 349 349 347 344 344 344 345 345 345 345
318 321 320 319 318 318 315 315 315 315 315 314 314 315 315 315 315 316 316 316 316 317 317 316 316 315 319 333 346 347 348 347 346 347 345 343 342 341 339 339 339 341 342 342
317 318 320 321 320 319 317 316 316 316 317 315 315 315 316 317 317 318 318 315 319 324 324 320 321 331 336 343 346 346 346 346 345 345 341 341 341 336 338 342 341 336 340 338
319 319 320 322 321 320 320 317 317 317 317 314 315 316 314 316 317 317 317 317 319 329 341 338 348 349 352 351 351 349 347 346 345 344 339 337 339 338 337 338 336 336 338 339
318 319 320 320 321 322 320 319 318 317 314 315 314 316 316 316 318 318 318 320 324 327 326 325 329 337 352 350 350 350 349 347 345 345 341 342 340 337 336 336 335 335 334 334
319 320 321 321 322 321 319 319 320 318 315 314 313 316 315 317 318 320 320 320 325 324 325 332 335 336 337 348 348 347 346 345 344 343 342 341 340 337 336 335 334 333 333 333
326 326 324 322 321 319 316 318 314 316 318 314 317 317 315 318 321 323 324 325 326 327 332 335 335 335 336 339 344 350 345 344 344 343 341 341 341 337 337 339 339 336 334 333
328 328 324 322 321 319 320 316 315 316 326 322 320 320 328 328 324 325 327 329 329 331 334 334 333 331 332 334 338 340 343 346 343 341 340 338 337 336 335 333 335 339 338 338
326 328 322 322 322 321 320 315 317 321 327 330 324 333 336 332 331 326 325 324 325 331 335 334 330 326 327 331 334 334 335 338 342 343 343 342 341 341 341 341 339 339 339 337
322 322 323 325 324 323 320 319 317 319 321 325 328 330 331 330 327 327 324 324 324 322 330 330 327 326 325 328 330 330 331 331 331 331 332 334 334 333 332 331 332 330 329 327
319 324 324 322 324 323 325 321 317 320 321 322 330 330 330 328 326 327 327 327 326 325 323 321 324 322 321 320 321 324 326 325 324 325 325 324 325 326 327 326 327 328 328 328
322 323 326 325 324 325 327 321 319 319 322 328 328 328 328 329 327 325 324 324 325 326 324 323 319 317 318 317 315 316 318 320 318 317 317 316 316 317 318 318 318 318 319 320
325 323 323 324 328 328 328 326 328 323 325 328 328 333 330 328 328 326 323 319 320 321 325 323 318 315 316 315 314 314 314 314 314 314 314 314 314 313 313 314 314 315 315 315
327 326 325 323 327 326 328 329 329 329 327 326 328 330 327 326 327 325 323 322 324 326 325 319 316 314 313 313 313 313 313 313 313 313 313 313 313 313 313 312 311 311 311 310
321 326 325 323 323 324 328 327 328 329 329 328 327 331 327 323 323 321 323 322 324 322 320 318 316 314 313 313 313 313 313 313 313 312 311 310 309 309 308 308 308 308 309 308
321 324 327 327 329 325 327 326 326 326 327 330 330 327 325 326 321 320 320 322 321 319 318 316 315 314 313 313 313 313 313 313 312 311 310 308 308 307 307 307 307 307 307 307
324 324 323 326 327 327 321 320 324 327 327 327 324 325 327 318 317 316 316 316 316 316 315 313 311 312 313 313 313 313 313 312 311 310 309 308 307 307 306 306 306 306 306 306
316 319 319 326 322 324 323 321 324 325 324 324 323 325 318 316 316 315 314 313 312 312 311 311 312 313 313 313 313 312 311 310 309 308 307 306 306 306 305 304 303 303 303 302
315 317 318 317 322 324 324 320 321 321 326 321 319 318 317 316 318 315 312 312 311 310 311 311 312 310 311 310 309 307 306 307 307 306 305 305 304 303 303 301 301 300 299 299
317 315 316 315 315 324 322 323 321 321 324 318 316 316 316 317 315 312 311 312 311 310 310 310 306 303 304 305 305 303 302 301 302 303 302 301 300 299 299 298 297 297 296 296
316 314 312 314 311 323 321 321 323 319 315 313 313 312 314 313 312 310 309 306 303 302 302 303 302 301 301 301 301 299 298 298 299 298 298 297 297 296 295 295 294 295 295 295
314 315 315 315 316 317 317 317 315 313 313 313 311 309 308 307 306 304 302 302 301 300 300 300 300 299 298 299 298 297 295 296 296 296 295 294 294 293 293 292 293 293 294 294
317 314 319 319 321 318 317 314 312 311 310 307 305 304 303 302 301 301 300 298 298 299 298 298 298 297 296 295 295 294 293 293 293 292 292 291 291 291 291 292 292 292 293 294
313 314 317 319 319 317 315 312 306 304 303 303 303 302 302 301 300 300 299 297 297 296 296 296 295 295 293 293 292 291 291 290 290 289 289 289 290 290 291 292 292 293 294 294
314 314 315 319 316 313 311 306 304 303 303 303 301 300 298 298 297 296 295 295 294 293 294 293 292 292 291 291 290 290 289 289 288 288 288 289 290 290 291 292 293 294 294 294

GFSCGP_925_thetae_147.txt.gz
Theta_e
317 320 317 314 310 310 311 311 311 312 311 311 311 310 311 312 310 309 309 309 309 311 313 314 314 315 313 324 339 345 347 346 345 345 344 344 344 344 345 344 343 343 342 342
319 321 319 316 313 313 313 312 311 313 314 312 312 311 311 311 311 310 311 311 311 312 313 313 315 315 313 321 336 345 346 345 345 345 345 345 343 343 343 343 343 343 342 342
318 319 319 319 318 317 312 312 312 314 315 314 313 313 312 313 312 313 311 311 311 312 313 314 313 314 314 324 334 343 345 346 345 346 346 345 343 343 343 344 344 344 344 343
317 316 317 320 320 317 318 314 314 315 316 314 313 313 313 313 314 312 312 311 312 314 315 316 314 313 321 330 334 340 344 346 345 345 346 345 343 340 342 344 345 344 342 340
318 316 316 318 320 319 318 317 316 317 317 315 315 312 313 313 315 314 314 314 315 325 331 330 320 337 336 338 342 343 344 344 345 345 346 346 343 342 342 342 341 339 338 337
317 316 316 317 318 320 319 320 320 318 317 317 316 313 312 314 315 316 317 315 326 329 329 335 343 346 346 347 345 343 342 343 345 345 345 344 343 342 340 338 337 337 337 335
322 319 317 318 319 318 321 322 328 324 319 320 314 313 313 314 316 317 319 321 324 325 333 336 337 338 343 343 346 345 343 343 343 342 341 339 339 338 338 337 337 338 338 336
326 323 319 320 321 321 321 324 325 329 319 319 313 315 313 321 322 320 320 322 325 334 335 336 337 337 339 343 344 343 344 342 344 343 342 340 339 337 336 337 337 337 336 336
326 325 322 320 320 322 320 323 319 315 326 321 316 318 326 328 326 325 327 329 333 334 334 333 332 332 333 336 341 345 344 344 343 343 342 340 339 338 337 336 334 333 334 334
324 327 323 322 320 320 322 318 320 322 323 325 324 333 332 330 328 325 327 326 331 333 329 327 328 329 329 330 334 339 339 338 341 340 339 339 338 338 338 337 337 337 337 337
324 324 324 322 323 322 321 322 321 317 318 322 327 329 329 328 327 326 325 325 327 329 326 326 325 326 325 326 328 329 330 331 332 333 333 332 331 329 331 332 331 329 328 328
324 324 326 323 323 323 322 320 318 318 321 320 324 330 329 325 325 325 325 328 325 322 320 319 319 319 318 318 321 323 324 323 323 323 323 323 325 325 325 324 324 324 323 328
324 324 326 324 325 322 325 324 319 316 319 323 324 327 327 326 324 324 324 325 325 323 319 317 316 315 315 315 315 316 315 315 315 315 315 314 314 314 315 315 316 316 316 315
324 321 323 324 324 324 326 325 321 320 319 323 323 334 329 330 328 324 324 323 324 322 319 316 314 313 313 312 312 312 312 313 313 313 312 312 312 313 312 311 311 311 310 310
325 325 323 325 327 327 327 327 328 322 321 324 327 331 329 329 329 327 324 325 327 321 318 315 312 312 312 312 312 312 312 312 311 310 309 309 309 308 309 308 308 308 308 307
322 327 324 325 324 326 328 328 329 329 327 328 330 331 326 326 325 326 325 326 323 319 316 314 313 312 312 312 312 312 311 311 311 310 309 308 308 308 307 307 307 307 307 307
322 321 325 327 325 325 328 325 327 329 328 328 329 328 325 325 324 325 324 325 322 320 317 315 313 311 311 312 312 312 312 311 311 309 308 307 307 307 306 306 306 306 305 306
322 323 320 326 324 328 323 321 325 327 327 327 328 326 324 321 320 320 321 321 320 318 316 314 311 311 312 313 312 312 311 310 309 307 306 306 306 305 305 305 304 303 303 302
319 321 321 326 324 325 324 324 327 326 324 322 324 319 317 316 316 314 315 315 313 312 311 310 310 310 311 311 311 309 308 307 306 306 305 304 304 303 302 301 300 300 299 299
318 320 319 320 324 327 323 322 321 321 325 321 319 318 318 318 320 315 312 311 310 310 310 308 306 305 306 305 306 306 304 304 302 301 301 300 300 300 299 298 298 298 297 296
318 316 319 318 323 325 323 322 320 322 325 319 318 318 318 319 315 311 309 307 305 306 303 303 302 302 303 303 303 301 299 298 298 298 298 298 298 297 296 296 295 295 295 295
315 314 314 316 319 326 319 320 318 318 313 316 316 315 314 313 310 307 304 301 301 301 300 299 299 299 299 300 300 297 296 296 296 296 296 295 295 294 293 293 293 293 293 294
317 313 316 315 317 317 315 314 311 311 312 313 309 308 307 305 303 302 300 299 298 298 298 298 298 297 297 297 297 296 294 295 295 294 293 292 292 291 291 291 292 292 293 293
316 314 318 319 319 315 310 306 306 306 305 305 304 303 302 301 300 299 298 297 296 296 296 296 296 295 294 294 294 294 293 292 291 290 290 290 290 290 291 292 292 292 293 293
313 315 319 320 317 310 305 303 304 304 302 301 300 301 300 300 298 297 296 295 294 294 294 294 294 293 292 292 291 291 290 289 289 289 289 289 289 290 290 292 293 293 294 294
311 314 316 319 315 311 305 302 304 302 301 300 299 297 296 297 296 294 293 293 293 293 293 292 292 291 290 290 289 289 288 288 288 288 289 290 290 291 292 292 293 294 294 294